STARLINK-35744 (66581 NORAD) Tracking and Keplerian Element Data

This shows tracking and keplerian element data for the satellite.

Feedback or suggestion? Click here.




ElementValue
Catalog66581
NameSTARLINK-35744
Epoch Orbit569
Epoch Day353.60622148
Epoch Year2025
RAAN80.9302
Inclination42.9976
Eccentricity0.0002007
Argument of Perigee149.3188
Mean Anonmoly210.779
Mean Motion15.50868619
Decay Rate0.00178751
L11 66581U 25268AA 25353.60622148 .00178751 00000+0 29530-2 0 9995
L22 66581 42.9976 80.9302 0002007 149.3188 210.7790 15.50868619 5695



Live tracking and technical data element details for STARLINK-35744 (NORAD 66581). STARLINK-35744 can be tracked NOW for your location showing map with azimuth and elevation plus other details from your city location.







IsCatalogInMostPopularTable: catalog: 66581, numindb: 8
Update: records affected: 1



GetName: 66581 STARLINK-35744

Hit Count: updated at: Mon, 09 Feb 2026 08:37:11 GMT